Weather in Saint-Marc

Haiti     19°06′21″N   72°41′49″W
temp.,
°C
wind,
m/s
gust,
m/s
humid.,
%
clouds,
%
prec.,
mm/h
press.,
hPa
HPBL,
m
19 april, mon
mon1923:00+27ne336652 0.0 101791
02:00+26se22658 0.0 1015227
05:00+25ese216365 0.0 1016149
08:00+26se226279 0.0 1017297
11:00+28s445681 0.0 1018628
14:00+29ssw565174 0.0 1015804
17:00+29nnw22558 0.0 1013331
20:00+28nne34620 0.0 101589
20 april, tue
tue2023:00+27ene23720 0.1 1017152
02:00+25sse33740 0.1 1016321
05:00+25ese22740 0.0 1015194
08:00+26sse22672 0.0 1017292
11:00+27ssw43591 0.0 1018632
14:00+28w33530 0.0 1016479
17:00+28nnw55576 0.0 1015447
20:00+28nnw3363100 0.1 1016186
21 april, wed
wed2123:00+27wnw22700 0.4 1017263
02:00+26s227462 0.4 1016373
05:00+25sse227113 0.0 1015298
08:00+25e226715 0.0 1018307
11:00+27sw326510 0.0 1018677
14:00+27wnw44645 0.0 1016513
17:00+27nw54645 0.0 1015608
20:00+27wnw347083 0.1 1016344
22 april, thu
thu2223:00+26nw1270100 1.3 101754
02:00+26sw127186 1.3 1015370
05:00+25s337556 0.0 1014496
08:00+25sse3369100 0.0 1017422
11:00+27ssw436533 0.0 1017687
14:00+27wnw43574 0.0 1015521
17:00+27nw65650 0.0 1014571
20:00+26nw337327 0.3 1015217
23 april, fri
fri2323:00+26nw116833 0.4 1016222
02:00+26s11700 0.4 1015259
05:00+25sse22735 0.0 1014414
08:00+26s22723 0.1 1016408
11:00+27sw326712 0.1 1017658
14:00+27wnw44656 0.8 1014447
17:00+27nw557140 0.1 1013528
20:00+26nw23733 2.0 1015124